[[{"header":{"parameterUnit":"m.s-1","parameterCategory":1,"la1":30.2991,"la2":30.254,"lo1":-89.0895,"lo2":-89.0444,"dy":0.0017,"dx":0.0017,"nx":28,"ny":28,"refTime":"2024-10-06T03:00:00:Z","depth":0,"parameterNumber":2,"parameterNumberName":"U-component_of_WINDS"},"data":[0,0,0,0,0,0,0,0,0,0,0,0,0,0,0,0,0,0,0,0,0,0,0,0,0,0,0,0,0,0,0,0,0,0,0,0,0,0,0,0,0,0,0,0,0,0,0,0,0,0,0,0,0,0,0,0,0,0,-2.2561,-2.2561,0,-2.2529,-2.2528,-2.2528,-2.2504,-2.2504,-2.2504,-2.2504,-2.247,-2.2469,-2.2469,0,0,0,0,0,0,0,0,0,0,0,0,0,-2.2604,-2.2604,-2.2562,-2.2561,-2.2561,-2.2529,-2.2528,-2.2528,-2.2505,-2.2504,-2.2504,-2.2504,-2.247,-2.2469,-2.2469,0,0,0,0,0,0,0,0,0,0,0,0,0,-2.258,-2.2604,-2.2562,-2.2545,-2.2543,-2.2529,-2.2528,-2.2528,-2.2505,-2.2504,-2.2504,-2.2504,-2.2471,-2.2469,-2.2468,-2.2468,0,0,-2.2465,-2.2465,0,0,0,0,0,0,0,0,-2.2582,-2.2579,-2.2548,-2.2546,-2.2544,-2.252,-2.2531,-2.2508,-2.2505,-2.2519,-2.2504,-2.2504,-2.2487,-2.2485,-2.2479,-2.2466,-2.2464,-2.2465,-2.2464,-2.2464,-2.2464,0,0,0,0,0,0,0,-2.2583,-2.258,-2.2549,-2.2548,-2.2545,-2.254,-2.2536,-2.2527,-2.2505,-2.2518,-2.2516,-2.2513,-2.2486,-2.248,-2.2478,-2.2464,-2.2465,-2.2464,-2.2463,-2.2463,-2.245,-2.245,0,0,0,0,0,0,-2.2588,-2.2581,-2.255,-2.2548,-2.2563,-2.2539,-2.2535,-2.2528,-2.2505,-2.2501,-2.2513,-2.2512,-2.2482,-2.2479,-2.2477,-2.2475,-2.2464,-2.2463,-2.2462,-2.245,-2.245,-2.245,0,0,0,0,0,0,-2.2589,-2.2585,-2.2551,-2.2564,-2.2559,-2.2539,-2.2532,-2.2528,-2.2522,-2.2501,-2.2497,-2.2511,-2.2482,-2.2478,-2.247,-2.2473,-2.2462,-2.2461,-2.2449,-2.245,-2.245,-2.247,0,0,0,0,0,0,-2.259,-2.2585,-2.2584,-2.2564,-2.2559,-2.2545,-2.2532,-2.2527,-2.252,-2.2518,-2.2498,-2.2495,-2.2481,-2.2472,-2.2469,-2.2471,-2.2461,-2.2449,-2.245,-2.245,-2.2469,-2.2471,-2.2473,0,0,0,0,0,-2.2591,-2.2591,-2.2584,-2.2581,-2.2557,-2.2545,-2.2542,-2.2526,-2.2521,-2.252,-2.2507,-2.2495,-2.2474,-2.2471,-2.2468,-2.247,-2.2449,-2.2449,-2.245,-2.2468,-2.2471,-2.2473,0,0,0,0,0,0,-2.2611,-2.2588,-2.258,-2.2573,-2.2561,-2.2541,-2.2539,-2.2529,-2.2518,-2.2517,-2.2498,-2.2494,-2.2488,-2.2478,-2.2476,-2.2469,-2.246,-2.246,-2.2475,-2.2477,-2.2479,-2.2481,-2.246,0,0,0,0,0,-2.2615,-2.2607,-2.2587,-2.2583,-2.2577,-2.256,-2.2553,-2.2543,-2.253,-2.2524,-2.2511,-2.2498,-2.2489,-2.2483,-2.2473,-2.2468,-2.2464,-2.2468,-2.247,-2.2472,-2.2472,-2.247,-2.2471,-2.2453,-2.2453,-2.2453,0,0,-2.2622,-2.2608,-2.2604,-2.2587,-2.2576,-2.2568,-2.2555,-2.2547,-2.2542,-2.2523,-2.2514,-2.2505,-2.249,-2.2484,-2.248,-2.2475,-2.2476,-2.2473,-2.2474,-2.2473,-2.2471,-2.2472,-2.2474,-2.2453,-2.2453,-2.2453,0,0,-2.2631,-2.262,-2.2616,-2.2606,-2.259,-2.2579,-2.2578,-2.2559,-2.2552,-2.2544,-2.253,-2.2523,-2.2507,-2.2497,-2.249,-2.2498,-2.2487,-2.2496,-2.2505,-2.2503,-2.2505,-2.2506,-2.2509,-2.251,-2.2496,-2.2496,-2.2496,0,-2.2642,-2.263,-2.2614,-2.2608,-2.2601,-2.2585,-2.258,-2.2572,-2.2554,-2.2549,-2.2544,-2.2524,-2.2513,-2.2505,-2.2507,-2.2502,-2.2501,-2.2497,-2.2506,-2.2507,-2.2508,-2.251,-2.2511,-2.2497,-2.2497,-2.2497,-2.2497,0,-2.2644,-2.2636,-2.2634,-2.2618,-2.2611,-2.2605,-2.259,-2.2584,-2.2575,-2.2565,-2.2557,-2.2543,-2.2531,-2.2529,-2.2519,-2.252,-2.2517,-2.2509,-2.25,-2.2511,-2.2513,-2.2514,-2.2498,-2.2498,-2.2498,-2.2497,0,0,-2.2662,-2.2639,-2.2639,-2.2632,-2.2615,-2.2608,-2.2603,-2.2591,-2.2587,-2.2576,-2.2571,-2.2559,-2.2552,-2.2544,-2.2534,-2.2532,-2.254,-2.2525,-2.2524,-2.2528,-2.254,-2.2546,-2.2547,-2.2534,-2.2534,-2.2534,-2.2541,0,-2.2668,-2.2657,-2.2644,-2.2638,-2.2631,-2.2617,-2.2612,-2.2601,-2.2592,-2.2585,-2.2574,-2.2566,-2.2558,-2.2553,-2.2551,-2.2539,-2.2542,-2.2539,-2.2529,-2.2529,-2.2532,-2.2548,-2.2553,-2.2561,-2.2542,-2.2542,-2.2542,0,-2.2673,-2.2663,-2.2656,-2.2641,-2.2638,-2.2634,-2.2622,-2.2616,-2.2604,-2.2597,-2.259,-2.2579,-2.2573,-2.2566,-2.2558,-2.2556,-2.2552,-2.2546,-2.2546,-2.2543,-2.2535,-2.2545,-2.2563,-2.2564,-2.2544,-2.2543,-2.2543,0,-2.2687,-2.2672,-2.2666,-2.2661,-2.2643,-2.2641,-2.2633,-2.2621,-2.2615,-2.2606,-2.2602,-2.2593,-2.2587,-2.258,-2.2567,-2.2563,-2.2561,-2.2552,-2.2555,-2.2555,-2.2554,-2.2554,-2.257,-2.2553,-2.2553,-2.2553,-2.2553,0,-2.2694,-2.269,-2.2672,-2.2669,-2.2665,-2.2651,-2.2647,-2.2638,-2.2628,-2.2623,-2.2611,-2.2606,-2.259,-2.2584,-2.2574,-2.2569,-2.2567,-2.2561,-2.2559,-2.2562,-2.2563,-2.2558,-2.2557,-2.2553,-2.2553,-2.2553,-2.2553,0,-2.2708,-2.2696,-2.2689,-2.2673,-2.2669,-2.2667,-2.2654,-2.265,-2.2641,-2.2634,-2.2632,-2.2617,-2.261,-2.2597,-2.2585,-2.2579,-2.2576,-2.2572,-2.258,-2.2578,-2.2581,-2.2581,-2.2594,-2.2595,-2.2578,-2.2578,-2.2578,0,-2.2713,-2.271,-2.2695,-2.2691,-2.2684,-2.2677,-2.2671,-2.2658,-2.2653,-2.2641,-2.2639,-2.263,-2.2622,-2.2611,-2.2599,-2.259,-2.2586,-2.2591,-2.2584,-2.2588,-2.2585,-2.2585,-2.2585,-2.2592,-2.2592,-2.2593,-2.2593,0,-2.2723,-2.2718,-2.271,-2.2701,-2.2695,-2.2687,-2.2679,-2.2676,-2.2661,-2.2656,-2.2648,-2.2643,-2.2631,-2.2623,-2.2613,-2.2606,-2.2597,-2.2595,-2.2595,-2.2598,-2.2603,-2.26,-2.2583,-2.2595,-2.2594,-2.2594,-2.2594,-2.2594,-2.2733,-2.273,-2.2719,-2.2711,-2.2704,-2.2696,-2.2692,-2.2683,-2.2677,-2.2666,-2.266,-2.2652,-2.2642,-2.2628,-2.2622,-2.2616,-2.2612,-2.2612,-2.2612,-2.2612,-2.2613,-2.2605,-2.2614,-2.2614,-2.2614,-2.2614,-2.2614,0,-2.2742,-2.2735,-2.2728,-2.2717,-2.2711,-2.2704,-2.2695,-2.2691,-2.2685,-2.2676,-2.2669,-2.2661,-2.2653,-2.2642,-2.2634,-2.2632,-2.2627,-2.263,-2.2629,-2.2628,-2.2617,-2.2618,-2.2633,-2.2633,-2.2633,-2.2633,-2.2633,-2.2633,-2.2746,-2.2741,-2.2734,-2.2726,-2.2718,-2.2711,-2.2707,-2.27,-2.2693,-2.2685,-2.2678,-2.2672,-2.2662,-2.2653,-2.2646,-2.2643,-2.2641,-2.2644,-2.264,-2.263,-2.2628,-2.2627,-2.2627,-2.2644,-2.2644,-2.2651,-2.2651,-2.2651]},{"header":{"parameterUnit":"m.s-1","parameterCategory":1,"la1":30.2991,"la2":30.254,"lo1":-89.0895,"lo2":-89.0444,"dy":0.0017,"dx":0.0017,"nx":28,"ny":28,"refTime":"2024-10-06T03:00:00:Z","depth":0,"parameterNumber":3,"parameterNumberName":"V-component_of_WINDS"},"data":[0,0,0,0,0,0,0,0,0,0,0,0,0,0,0,0,0,0,0,0,0,0,0,0,0,0,0,0,0,0,0,0,0,0,0,0,0,0,0,0,0,0,0,0,0,0,0,0,0,0,0,0,0,0,0,0,0,0,-2.7247,-2.7247,0,-2.7258,-2.7258,-2.7258,-2.7316,-2.7317,-2.7319,-2.732,-2.7329,-2.7328,-2.7327,0,0,0,0,0,0,0,0,0,0,0,0,0,-2.7278,-2.7277,-2.7247,-2.7247,-2.7247,-2.7258,-2.7258,-2.7258,-2.7316,-2.7318,-2.7319,-2.7321,-2.733,-2.7328,-2.7327,0,0,0,0,0,0,0,0,0,0,0,0,0,-2.7274,-2.7277,-2.7247,-2.7278,-2.728,-2.7258,-2.7258,-2.7258,-2.7315,-2.7318,-2.732,-2.7322,-2.733,-2.7329,-2.7327,-2.7275,0,0,-2.7322,-2.7322,0,0,0,0,0,0,0,0,-2.7274,-2.7273,-2.7273,-2.7275,-2.7279,-2.7288,-2.7272,-2.7264,-2.7315,-2.7302,-2.732,-2.7323,-2.7314,-2.7314,-2.7311,-2.7276,-2.7276,-2.7322,-2.7321,-2.732,-2.732,0,0,0,0,0,0,0,-2.7274,-2.7273,-2.7251,-2.7273,-2.7276,-2.7291,-2.7293,-2.7271,-2.7296,-2.7303,-2.7308,-2.7308,-2.7316,-2.7312,-2.7312,-2.7276,-2.7322,-2.7321,-2.732,-2.7319,-2.7203,-2.7201,0,0,0,0,0,0,-2.727,-2.7272,-2.7251,-2.7252,-2.7282,-2.7289,-2.7291,-2.7283,-2.7296,-2.7301,-2.7306,-2.7311,-2.7314,-2.7313,-2.7312,-2.7255,-2.732,-2.7319,-2.7318,-2.7205,-2.7202,-2.72,0,0,0,0,0,0,-2.7271,-2.7268,-2.725,-2.7263,-2.7262,-2.7286,-2.7276,-2.7282,-2.7278,-2.7299,-2.7303,-2.7298,-2.7316,-2.7314,-2.7285,-2.7256,-2.7318,-2.7317,-2.7207,-2.7204,-2.7201,-2.7138,0,0,0,0,0,0,-2.7271,-2.7268,-2.7248,-2.7262,-2.7261,-2.7222,-2.7275,-2.728,-2.7276,-2.7282,-2.7292,-2.7296,-2.7317,-2.7287,-2.7283,-2.7255,-2.7316,-2.721,-2.7206,-2.7202,-2.7142,-2.7133,-2.7124,0,0,0,0,0,-2.7272,-2.7228,-2.7246,-2.7243,-2.7237,-2.7221,-2.722,-2.7246,-2.7273,-2.7254,-2.7267,-2.7296,-2.7259,-2.7283,-2.728,-2.725,-2.7212,-2.7207,-2.7202,-2.7146,-2.7135,-2.7124,0,0,0,0,0,0,-2.7208,-2.7231,-2.7251,-2.721,-2.7213,-2.723,-2.7207,-2.7232,-2.7226,-2.7232,-2.7264,-2.7266,-2.7232,-2.7238,-2.7264,-2.7203,-2.7241,-2.7235,-2.72,-2.7188,-2.7179,-2.7179,-2.7314,0,0,0,0,0,-2.719,-2.7175,-2.7195,-2.7157,-2.7158,-2.7182,-2.7176,-2.7196,-2.72,-2.7201,-2.7212,-2.7215,-2.7205,-2.7197,-2.7188,-2.7144,-2.7148,-2.7122,-2.7113,-2.7105,-2.71,-2.708,-2.7069,-2.7184,-2.7184,-2.7184,0,0,-2.715,-2.7161,-2.7149,-2.7145,-2.7149,-2.7134,-2.7182,-2.7163,-2.7152,-2.7198,-2.7171,-2.718,-2.7185,-2.7149,-2.7133,-2.7153,-2.707,-2.7099,-2.7093,-2.7092,-2.7074,-2.7063,-2.7053,-2.7181,-2.7181,-2.7182,0,0,-2.7071,-2.7077,-2.7048,-2.7052,-2.7059,-2.7076,-2.7069,-2.7083,-2.7091,-2.7065,-2.71,-2.7088,-2.7068,-2.7072,-2.7071,-2.6997,-2.7024,-2.6993,-2.6946,-2.6926,-2.6917,-2.6909,-2.6884,-2.6875,-2.6988,-2.6988,-2.6987,0,-2.7021,-2.6999,-2.7029,-2.7009,-2.7007,-2.7049,-2.702,-2.7023,-2.7026,-2.7024,-2.7046,-2.7025,-2.7032,-2.6998,-2.698,-2.6978,-2.6972,-2.6992,-2.6916,-2.6908,-2.6901,-2.6878,-2.6869,-2.6984,-2.6984,-2.6985,-2.6985,0,-2.6939,-2.6923,-2.6899,-2.6903,-2.6898,-2.6873,-2.69,-2.6892,-2.6913,-2.6928,-2.6902,-2.6912,-2.6908,-2.6901,-2.692,-2.6871,-2.6883,-2.691,-2.6949,-2.6886,-2.6865,-2.6856,-2.6979,-2.698,-2.6981,-2.6982,0,0,-2.6818,-2.6841,-2.6832,-2.6836,-2.6848,-2.6837,-2.6815,-2.6812,-2.6805,-2.6806,-2.679,-2.6774,-2.68,-2.6799,-2.682,-2.6802,-2.6746,-2.6832,-2.6832,-2.6817,-2.6695,-2.6675,-2.6664,-2.6764,-2.6762,-2.6761,-2.6695,0,-2.6743,-2.6708,-2.6735,-2.6695,-2.6682,-2.6724,-2.6706,-2.6712,-2.6726,-2.6717,-2.6733,-2.6722,-2.6756,-2.6756,-2.674,-2.6756,-2.6722,-2.6761,-2.675,-2.6749,-2.6748,-2.6653,-2.6631,-2.6568,-2.6686,-2.6685,-2.6684,0,-2.6651,-2.6651,-2.661,-2.6628,-2.6624,-2.6606,-2.6607,-2.6598,-2.6607,-2.6619,-2.6619,-2.6646,-2.6627,-2.6666,-2.6641,-2.6667,-2.6665,-2.6672,-2.667,-2.667,-2.6713,-2.6652,-2.6548,-2.6539,-2.6671,-2.6672,-2.6673,0,-2.6569,-2.6558,-2.6533,-2.6535,-2.6555,-2.6542,-2.655,-2.6561,-2.6558,-2.6559,-2.6558,-2.6556,-2.6555,-2.6554,-2.658,-2.6605,-2.6553,-2.6593,-2.6563,-2.6562,-2.6549,-2.655,-2.6445,-2.6546,-2.6546,-2.6546,-2.6547,0,-2.6483,-2.6457,-2.6497,-2.6481,-2.6454,-2.6486,-2.6458,-2.647,-2.648,-2.6469,-2.6504,-2.6493,-2.6527,-2.652,-2.654,-2.6518,-2.6517,-2.6526,-2.6532,-2.6524,-2.6523,-2.6523,-2.6528,-2.6544,-2.6545,-2.6545,-2.6545,0,-2.6386,-2.6412,-2.6388,-2.641,-2.6415,-2.6394,-2.6413,-2.64,-2.6418,-2.6403,-2.6401,-2.6428,-2.6422,-2.6448,-2.6444,-2.6459,-2.6426,-2.6439,-2.6424,-2.6428,-2.6397,-2.64,-2.6289,-2.6277,-2.6384,-2.6383,-2.6382,0,-2.633,-2.6311,-2.6332,-2.6328,-2.6334,-2.6326,-2.6324,-2.6356,-2.6353,-2.6364,-2.635,-2.6346,-2.6345,-2.6333,-2.6353,-2.6351,-2.6365,-2.6326,-2.6365,-2.6358,-2.6366,-2.6368,-2.6367,-2.6318,-2.6317,-2.6316,-2.6315,0,-2.6228,-2.6243,-2.6239,-2.6241,-2.6238,-2.6241,-2.6246,-2.624,-2.6275,-2.627,-2.6264,-2.6263,-2.6262,-2.6259,-2.6262,-2.6271,-2.6299,-2.6303,-2.6296,-2.6287,-2.628,-2.6286,-2.6403,-2.6305,-2.6306,-2.6307,-2.6307,-2.6308,-2.6151,-2.6138,-2.6151,-2.6147,-2.6155,-2.6159,-2.6149,-2.6167,-2.6163,-2.6165,-2.6184,-2.6175,-2.6187,-2.6195,-2.6202,-2.6196,-2.6214,-2.6204,-2.6201,-2.6199,-2.6194,-2.6281,-2.6196,-2.6197,-2.6197,-2.6197,-2.6198,0,-2.6053,-2.6065,-2.606,-2.6067,-2.6064,-2.6093,-2.61,-2.6096,-2.6088,-2.6097,-2.6097,-2.6091,-2.6089,-2.611,-2.6111,-2.6103,-2.6116,-2.6102,-2.6103,-2.6105,-2.6177,-2.6183,-2.6091,-2.6091,-2.6091,-2.6091,-2.6091,-2.6091,-2.6001,-2.5981,-2.5997,-2.5981,-2.5993,-2.5986,-2.5988,-2.5993,-2.6001,-2.5994,-2.5993,-2.6007,-2.6022,-2.6025,-2.6025,-2.6031,-2.603,-2.6012,-2.6023,-2.6089,-2.61,-2.611,-2.6116,-2.6011,-2.6011,-2.5952,-2.5952,-2.5951]}]]